Powrót do katalogu

SL-14 DEB

AktywnyPO
NORAD 19174·DEBRIS·🇷🇺 Russia

Wystrzelony Oct 26, 1978 z Plesetsk Cosmodrome

Loading…

Następne Przeloty (najbliższe 24 godziny)

TLE

ŚwieżeSource: Space-Track

Epoka: Sep 14, 2026, 15:54 UTC

1 19174U 78100R   26257.66250083  .00000121  00000-0  10341-2 0  9995
2 19174  81.9091 328.7636 0144522 320.3060 193.9596 12.22328601709644

Śledź SL-14 DEB w czasie rzeczywistym z AllMySat

Download on the App Store